Wetbulb
49.50 51.59 54.49 53.70 54.37 55.93 55.41 56.02 53.52 55.10 56.03 59.39 61.66 62.76 63.74 64.40 65.44 65.89 66.65 67.28 68.41 68.90 70.47 72.06 72.73 73.69 74.84 75.36 75.67 75.78 75.50 75.15 73.91 73.84 72.57 69.95 67.72 68.60 68.51 69.05 69.09 69.14 68.52 67.89
47.38 48.79 51.70 53.91 55.56 56.42 56.57 56.32 56.79 57.12 56.88 62.20 63.62 63.66 63.51 63.65 64.87 65.29 66.49 67.53 68.40 69.81 70.97 71.58 72.51 73.28 74.25 75.25 75.55 75.41 74.73 73.78 73.13 71.47 67.13 66.64 66.74 68.25 67.81 67.80 67.78 68.02 67.78 67.61
45.95 49.36 49.02 46.33 52.87 55.56 57.23 58.61 58.02 55.07 59.34 61.92 61.96 62.71 63.39 63.97 64.96 65.69 66.85 67.85 68.28 69.42 70.75 72.18 72.75 73.99 74.14 74.78 74.68 74.68 73.69 72.55 71.19 69.55 67.52 67.48 67.13 67.54 66.73 66.72 67.26 66.85 66.36 66.18
46.44 51.13 42.82 50.75 55.82 54.99 56.99 58.67 60.14 60.20 60.97 62.26 63.62 64.27 65.11 65.41 65.76 67.05 67.82 68.89 69.18 69.75 71.18 72.21 73.61 74.33 74.91 74.06 73.74 73.51 72.71 71.58 70.54 69.79 67.93 67.64 67.45 66.61 66.08 66.57 66.37 65.12 64.95 65.18
44.79 47.08 50.48 52.57 54.83 55.79 54.42 54.79 59.02 59.90 61.42 62.53 63.44 63.31 63.98 65.28 66.67 68.13 68.42 69.71 70.02 70.43 71.61 72.72 73.91 74.64 73.26 72.32 72.94 72.41 71.60 69.33 70.45 70.15 68.05 66.87 66.30 66.23 65.56 65.51 65.11 64.21 63.37 62.34
44.34 42.81 42.69 51.91 53.87 58.21 60.37 52.68 59.87 60.74 61.48 61.30 61.74 59.36 62.52 65.90 66.12 67.32 68.95 69.66 69.55 70.34 71.59 72.73 73.42 72.95 72.00 71.46 71.72 71.72 70.83 68.75 70.58 69.64 67.88 66.63 66.15 65.51 65.29 65.49 64.33 63.89 62.91 61.84
44.85 43.95 47.52 53.72 54.24 61.15 52.85 53.27 57.74 61.40 62.96 62.93 60.86 63.92 66.81 66.70 66.25 67.75 68.53 69.40 70.32 71.34 71.92 73.20 72.71 72.45 71.76 71.47 71.69 72.67 71.10 69.64 69.72 68.85 67.52 66.70 65.75 65.14 64.56 63.65 63.30 63.54 63.88 62.76
45.56 43.40 42.17 55.40 57.14 56.17 55.55 58.38 58.80 59.53 60.81 62.82 64.11 65.74 66.69 66.68 66.79 67.23 68.03 69.61 70.84 71.81 72.51 72.38 72.38 72.58 71.66 71.24 72.92 71.34 69.97 69.55 68.49 67.43 66.25 65.50 65.32 64.52 63.64 62.45 62.17 61.69 62.45 63.13
48.28 47.62 54.94 56.34 56.26 57.88 57.21 57.16 57.58 58.75 60.02 60.66 61.12 62.95 65.64 66.33 66.73 67.46 68.95 70.82 71.49 72.28 71.73 71.61 72.04 73.14 71.17 72.10 70.67 69.54 69.10 68.41 67.42 66.62 65.75 65.58 64.61 63.31 61.20 61.34 60.95 60.56 61.42 61.91
49.69 53.47 53.65 56.06 57.34 55.86 55.68 55.57 59.48 57.82 58.84 60.71 61.25 62.71 64.33 65.63 66.96 67.98 70.06 71.37 71.60 71.70 70.80 70.47 71.74 72.38 72.69 70.26 70.23 69.34 68.45 66.80 66.49 65.52 64.47 64.75 64.16 62.50 60.56 59.53 59.50 59.38 61.10 62.23
50.15 53.28 55.01 56.24 55.59 53.77 53.91 55.44 57.69 55.56 55.99 57.84 59.04 61.13 63.50 65.41 67.13 69.02 71.35 71.83 72.46 71.71 71.47 71.03 71.80 71.63 70.77 70.57 70.00 69.27 68.28 66.80 66.33 65.21 64.09 63.79 64.01 62.63 60.35 60.34 57.98 58.54 60.48 62.68
46.18 52.74 52.79 53.82 53.52 52.86 52.12 53.83 54.53 52.93 53.40 57.16 58.39 59.48 63.78 65.44 68.61 70.70 71.93 72.46 72.07 71.90 71.65 71.33 71.57 71.35 70.77 70.55 70.87 69.71 67.94 66.47 65.76 64.68 64.06 63.59 63.36 60.05 49.94 51.92 49.33 48.86 50.83 57.55
49.07 52.46 51.35 50.91 50.85 51.64 51.61 52.46 52.82 52.05 54.71 55.27 58.31 59.94 63.72 64.11 70.80 69.73 73.03 72.59 72.20 72.38 72.51 72.02 71.93 70.48 70.72 71.24 71.03 69.77 68.12 66.86 65.43 63.45 63.89 63.83 63.21 62.21 58.70 52.20 49.05 47.50 46.23 47.60
48.77 48.65 46.64 48.34 47.94 50.80 50.81 51.13 51.39 52.29 54.50 55.31 57.77 60.46 64.77 64.07 69.43 72.42 72.95 73.43 72.92 72.75 72.19 71.87 71.29 70.80 71.41 71.14 70.84 69.47 68.71 59.80 65.25 65.15 64.37 64.34 64.00 63.45 60.82 55.10 54.90 55.49 48.36 50.69
47.32 48.45 48.15 49.10 49.32 49.44 50.42 50.35 49.87 50.82 52.57 54.26 57.99 59.09 61.37 66.21 69.60 72.67 74.03 73.78 73.19 72.54 71.86 71.52 70.67 70.48 70.77 70.43 69.96 68.85 67.96 65.83 65.56 65.34 65.09 63.91 64.80 64.19 61.43 57.16 58.22 58.63 58.86 49.85
47.56 47.81 48.01 47.61 48.09 48.87 49.28 49.73 49.94 50.47 52.46 54.76 56.01 58.49 59.55 64.41 69.58 72.77 74.17 73.93 72.37 71.19 71.95 72.09 71.48 70.48 70.79 70.33 69.74 68.87 67.76 63.82 64.33 65.49 64.84 64.66 64.72 64.30 62.90 58.77 57.91 59.62 59.80 59.78
45.68 45.21 46.47 46.65 47.57 48.64 49.19 50.39 50.75 51.85 53.58 53.97 55.67 58.10 58.57 62.17 69.75 72.12 73.78 73.33 73.71 73.31 72.80 72.19 71.87 71.34 71.21 70.22 69.26 68.74 67.47 65.62 64.05 65.65 64.88 64.75 64.43 64.22 63.94 62.33 59.72 60.11 61.09 61.24
49.01 49.19 49.24 49.23 48.56 49.12 49.53 51.42 52.29 52.92 53.21 54.67 56.02 57.71 58.17 61.69 69.48 72.50 73.54 73.24 73.10 72.75 72.38 73.04 73.45 71.34 71.26 70.66 69.80 68.99 67.94 66.56 65.61 65.04 65.05 64.65 64.82 64.73 64.29 63.59 62.07 61.53 61.97 61.01
49.79 49.37 49.32 49.34 49.76 49.78 49.93 50.84 52.08 53.45 54.47 55.09 56.48 57.62 59.33 63.80 71.43 72.15 73.07 72.26 72.28 71.87 71.76 72.84 67.34 69.35 70.81 69.73 69.40 69.05 68.16 66.90 65.65 65.16 64.79 61.92 63.65 64.39 64.41 63.71 62.51 62.09 61.97 60.97
49.69 50.17 49.50 49.80 50.37 49.98 50.20 51.88 52.87 52.99 54.60 55.59 57.39 58.72 61.03 66.39 73.04 72.60 72.95 71.58 72.34 72.43 73.06 71.44 69.55 71.09 71.02 69.30 66.50 69.32 68.27 67.03 65.46 64.67 64.27 63.84 63.80 63.76 64.17 58.19 61.95 61.35 61.23 60.92
49.83 50.16 49.97 50.31 49.86 51.60 51.60 52.54 52.94 53.19 55.62 57.59 58.07 58.76 64.77 70.32 72.45 71.85 70.69 69.85 72.19 72.07 72.16 67.40 70.81 71.44 70.13 68.13 67.24 68.70 67.73 66.70 65.38 63.95 64.01 63.20 62.72 62.71 63.05 62.41 61.00 60.90 60.54 60.88
50.09 50.06 50.04 50.74 50.47 50.81 52.60 53.82 54.56 55.39 56.84 58.18 58.27 62.06 67.87 71.14 71.73 71.23 73.02 71.73 72.11 61.77 70.16 70.63 71.03 68.53 69.63 65.51 69.57 69.35 68.14 65.87 64.13 63.96 64.04 64.14 62.58 60.59 61.30 61.36 61.11 61.01 60.82 61.21
49.53 49.79 49.94 50.80 51.04 51.34 53.32 55.66 57.37 57.39 55.86 56.36 59.91 70.67 68.89 70.02 71.36 70.39 69.82 72.03 70.60 65.16 71.62 71.03 66.96 62.61 62.26 68.38 69.76 69.26 68.78 66.33 66.65 65.64 64.80 63.81 62.99 61.24 61.97 62.35 61.62 60.33 60.54 59.50
50.02 50.36 51.20 52.17 53.52 53.91 55.59 59.24 59.28 58.74 65.31 72.08 74.81 71.35 69.34 68.86 69.18 71.03 70.35 64.79 61.70 62.47 71.58 70.65 64.42 60.84 61.66 70.39 69.81 69.48 68.14 67.57 67.11 66.09 66.31 57.07 64.19 63.19 63.64 64.09 61.14 59.34 58.98 56.59
52.52 53.25 53.91 54.48 55.32 58.07 58.05 58.86 66.44 70.02 72.44 72.98 72.54 72.06 69.46 69.63 67.79 66.66 69.03 68.95 59.15 64.43 70.54 59.47 60.47 60.17 66.89 71.28 70.70 69.75 69.07 68.65 68.32 67.67 66.94 65.74 64.61 64.72 65.26 65.38 64.01 63.36 63.43 62.16
56.84 54.98 54.63 55.25 58.46 62.60 64.41 66.46 68.85 67.20 71.29 71.06 71.56 72.02 71.61 71.49 71.84 69.57 69.66 65.95 67.09 64.54 70.16 67.64 66.37 66.09 69.24 70.16 69.81 69.67 69.62 69.53 67.89 67.30 66.96 67.65 67.17 66.71 66.70 66.51 66.00 65.30 64.75 64.73
60.23 55.96 62.20 62.99 63.41 64.78 64.89 64.11 64.89 64.84 65.62 70.13 69.13 70.75 71.39 70.99 69.14 68.67 64.47 69.11 68.71 69.79 68.82 67.58 67.60 65.12 69.18 70.19 69.90 70.05 70.04 69.77 64.73 68.29 67.93 68.10 68.31 68.61 68.49 68.33 68.33 68.13 67.00 66.33
MSLP
1003.62 1003.09 1002.97 1002.76 1002.87 1003.51 1003.65 1003.07 1003.43 1002.38 1002.39 1001.66 1001.87 1002.07 1002.42 1003.41 1004.43 1005.31 1005.67 1006.31 1006.96 1007.65 1008.39 1009.21 1010.16 1011.10 1011.70 1012.03 1012.69 1013.51 1014.29 1015.02 1015.81 1016.68 1017.48 1018.35 1019.05 1019.37 1019.84 1019.97 1020.22 1020.53 1020.73 1021.02
1003.84 1003.15 1002.82 1002.29 1001.95 1002.14 1002.41 1002.37 1002.73 1002.41 1001.60 1001.67 1001.68 1002.02 1002.39 1002.78 1003.91 1004.69 1005.06 1005.53 1006.33 1007.28 1008.09 1008.82 1009.73 1010.55 1011.34 1011.92 1012.58 1013.27 1014.13 1015.04 1016.04 1016.99 1017.81 1018.41 1019.05 1019.51 1019.91 1020.21 1020.52 1020.73 1021.09 1021.42
1004.09 1003.61 1002.79 1001.67 1000.66 1001.15 1001.45 1001.49 1001.43 1001.38 1000.13 1001.18 1001.26 1001.40 1001.53 1002.06 1002.89 1003.59 1004.14 1004.80 1005.70 1006.50 1007.39 1008.25 1009.20 1010.12 1010.88 1011.77 1012.68 1013.44 1014.18 1015.07 1015.96 1016.94 1017.95 1018.70 1019.24 1019.67 1020.04 1020.31 1020.66 1021.10 1021.43 1021.68
1004.82 1003.96 1001.85 1000.13 1000.10 1000.01 1000.16 1000.04 1000.49 1000.07 1000.25 1000.62 1000.50 1000.55 1001.17 1001.50 1001.80 1002.51 1003.22 1003.90 1005.02 1005.98 1006.99 1007.88 1008.98 1010.11 1010.89 1011.85 1012.62 1013.49 1014.24 1015.07 1015.97 1016.91 1017.78 1018.58 1019.06 1019.49 1020.02 1020.46 1020.87 1021.24 1021.68 1022.04
1005.39 1003.65 1001.84 1000.33 1000.08 999.93 999.72 999.37 999.64 999.75 1000.00 1000.46 1000.74 1000.79 1000.78 1001.15 1001.30 1001.44 1002.08 1002.77 1003.85 1005.02 1006.16 1007.52 1008.67 1009.95 1010.94 1011.87 1012.60 1013.35 1014.19 1015.11 1015.79 1016.55 1017.42 1018.26 1018.89 1019.56 1020.12 1020.54 1021.05 1021.51 1021.96 1022.37
1006.23 1003.92 1001.56 1000.31 1000.17 1000.07 999.96 999.84 999.12 999.48 999.78 1000.29 1000.62 1000.26 999.43 1000.03 1000.53 1001.15 1001.54 1002.23 1003.65 1004.70 1006.08 1007.07 1008.53 1009.72 1010.72 1011.59 1012.31 1012.98 1013.95 1014.93 1015.56 1016.38 1017.18 1017.97 1018.80 1019.61 1020.29 1020.72 1021.22 1021.68 1022.22 1022.62
1005.99 1004.11 1002.06 1000.95 1000.87 1000.59 1001.20 1002.14 1001.16 1000.50 1000.21 1000.63 1000.49 999.42 998.91 999.47 1000.17 1000.44 1001.39 1002.11 1003.53 1004.54 1005.62 1006.49 1008.14 1009.25 1010.14 1011.10 1011.66 1012.78 1013.83 1014.77 1015.61 1016.41 1017.16 1018.02 1018.88 1019.68 1020.19 1020.66 1021.32 1021.79 1022.21 1022.65
1005.99 1004.50 1002.66 1002.10 1001.64 1001.99 1003.51 1003.17 1003.09 1002.71 1001.98 1001.13 1000.50 999.77 999.45 999.53 999.86 1000.58 1001.32 1002.33 1003.32 1004.47 1005.55 1006.68 1007.77 1008.80 1009.66 1010.52 1011.47 1012.72 1013.83 1014.65 1015.51 1016.42 1017.13 1018.00 1018.70 1019.41 1020.05 1020.67 1021.13 1021.64 1022.12 1022.46
1004.51 1003.11 1002.91 1002.99 1003.35 1004.07 1004.37 1004.31 1004.35 1004.11 1003.57 1003.07 1001.91 1000.54 999.83 999.75 999.66 1000.11 1000.94 1002.01 1002.54 1003.44 1005.26 1006.57 1007.27 1008.14 1009.03 1010.14 1011.39 1012.53 1013.65 1014.69 1015.44 1016.22 1016.94 1017.64 1018.20 1019.00 1019.78 1020.44 1020.71 1021.16 1021.53 1021.88
1005.08 1003.12 1003.38 1003.75 1004.35 1004.93 1005.13 1004.98 1004.93 1004.60 1004.07 1003.63 1002.78 1001.86 1000.32 999.74 999.78 999.98 1000.61 1001.55 1002.49 1003.57 1004.75 1005.99 1006.84 1007.80 1008.73 1010.04 1011.02 1012.10 1013.14 1014.38 1015.19 1015.78 1016.59 1017.43 1018.03 1018.73 1019.16 1019.80 1020.33 1020.80 1021.07 1021.38
1004.74 1004.04 1003.91 1004.04 1004.66 1005.11 1005.04 1005.09 1004.83 1004.89 1004.35 1003.69 1003.09 1001.59 1000.42 999.55 999.42 999.69 1000.12 1001.19 1002.04 1002.86 1003.97 1005.19 1006.11 1007.32 1008.53 1009.54 1010.58 1011.55 1012.66 1013.80 1014.63 1015.32 1016.03 1016.89 1017.42 1018.05 1018.69 1019.33 1019.63 1019.99 1020.49 1021.10
1003.85 1004.19 1004.47 1004.38 1004.94 1005.13 1005.05 1004.83 1004.92 1004.43 1003.26 1003.11 1003.09 1002.45 1001.27 999.99 999.35 999.44 1000.05 1000.80 1001.83 1002.72 1003.71 1005.14 1005.56 1006.61 1007.82 1008.88 1009.63 1010.57 1011.81 1012.99 1013.74 1014.51 1015.36 1016.17 1016.99 1018.21 1018.95 1019.23 1019.83 1020.25 1020.69 1021.08
1004.80 1004.77 1004.88 1004.89 1005.44 1005.29 1004.87 1005.03 1004.76 1004.69 1004.29 1003.30 1002.03 1002.05 1001.14 1000.20 999.49 999.50 1000.00 1000.94 1001.50 1001.54 1002.36 1004.07 1004.92 1006.06 1007.26 1008.24 1009.09 1009.96 1010.70 1011.90 1013.10 1013.77 1014.62 1015.47 1016.43 1017.25 1018.25 1019.66 1020.12 1020.48 1020.83 1021.30
1005.63 1005.83 1004.65 1004.21 1004.44 1004.72 1004.92 1004.81 1004.64 1004.04 1003.75 1003.34 1002.64 1001.79 1000.90 1000.00 999.42 999.31 999.46 999.90 1000.94 1001.85 1002.57 1003.58 1004.54 1005.14 1006.38 1007.46 1008.51 1009.60 1010.48 1011.43 1012.44 1013.23 1014.11 1014.98 1015.70 1016.42 1017.12 1017.87 1018.59 1019.52 1020.48 1020.94
1005.37 1005.26 1004.64 1004.60 1004.65 1004.63 1004.69 1004.50 1004.10 1003.37 1003.13 1002.91 1002.71 1002.30 1001.42 999.88 999.01 998.66 999.32 999.87 1000.53 1001.58 1002.69 1003.36 1004.31 1004.76 1005.90 1006.77 1007.69 1008.74 1009.61 1010.85 1011.70 1012.65 1013.59 1014.38 1015.16 1015.80 1016.40 1017.05 1017.59 1018.31 1019.15 1020.65
1004.86 1004.71 1004.32 1003.76 1003.87 1003.94 1004.29 1003.97 1003.81 1003.11 1002.82 1002.47 1002.32 1002.25 1001.44 1000.33 999.14 998.84 999.05 999.49 999.97 1000.46 1001.22 1002.39 1003.38 1003.85 1005.05 1005.99 1007.14 1008.33 1009.14 1010.02 1010.90 1011.94 1013.11 1013.90 1014.46 1014.85 1015.25 1015.75 1016.43 1017.11 1017.91 1018.60
1003.72 1003.28 1003.15 1003.22 1003.29 1003.22 1003.35 1003.58 1003.35 1002.85 1002.50 1002.28 1002.13 1001.27 1001.01 1000.24 998.77 998.39 998.59 998.98 999.55 999.93 1000.57 1000.77 1001.69 1003.16 1003.91 1004.98 1005.57 1006.77 1008.17 1009.38 1009.96 1010.80 1011.59 1012.55 1013.24 1013.83 1014.37 1014.95 1015.40 1015.98 1016.64 1017.42
1002.20 1001.84 1001.71 1002.18 1002.29 1002.21 1002.37 1002.50 1002.59 1002.44 1002.23 1001.85 1001.28 1001.00 1000.30 999.76 998.46 997.94 998.17 998.77 999.49 999.83 1000.27 1001.09 1002.00 1002.49 1003.10 1003.90 1004.90 1005.74 1006.77 1008.15 1009.28 1009.77 1010.57 1011.26 1011.63 1012.32 1013.11 1013.88 1014.51 1015.07 1015.78 1016.54
1000.62 1000.27 1000.78 1001.17 1001.30 1001.58 1001.81 1001.77 1001.69 1001.70 1001.44 1001.27 1000.83 1000.33 1000.10 998.92 997.53 997.59 997.95 998.41 998.96 999.34 999.62 1000.72 1001.63 1002.67 1003.22 1004.05 1004.85 1005.68 1006.68 1007.42 1008.20 1009.09 1009.82 1010.50 1011.07 1011.32 1011.68 1012.23 1013.19 1014.17 1014.88 1015.52
998.47 999.04 999.69 1000.07 1000.57 1000.90 1000.91 1000.82 1000.92 1000.87 1000.54 1000.48 1000.02 999.44 998.77 998.14 997.36 997.35 997.56 997.46 997.28 998.17 999.66 1000.68 1001.42 1002.17 1002.93 1003.62 1004.48 1004.80 1005.58 1006.72 1007.36 1008.06 1008.81 1009.80 1010.69 1011.44 1011.86 1011.73 1011.95 1012.63 1013.41 1013.94
996.52 997.66 998.46 999.08 999.51 1000.03 1000.14 1000.08 1000.17 999.83 999.37 999.53 999.07 998.37 997.56 996.86 996.60 996.76 996.94 996.78 997.04 998.09 999.16 1000.05 1000.80 1001.07 1002.13 1003.08 1004.08 1004.61 1005.45 1006.23 1006.72 1007.77 1007.95 1008.78 1009.52 1010.26 1010.66 1011.60 1012.14 1011.91 1012.00 1012.58
995.58 996.55 997.36 998.27 998.88 999.25 999.24 999.32 999.30 998.81 998.44 997.97 997.61 997.10 996.31 995.51 995.70 995.68 995.75 996.11 996.66 998.07 999.00 999.90 1000.16 1000.58 1001.26 1002.65 1002.88 1003.65 1004.45 1005.42 1005.83 1006.63 1006.42 1007.90 1007.82 1008.80 1009.43 1009.81 1010.55 1010.87 1010.93 1011.30
995.08 996.18 997.18 997.74 998.06 998.22 998.58 998.38 998.09 997.72 997.24 996.67 996.21 994.96 994.59 994.46 994.46 994.79 995.20 995.93 995.74 996.72 996.77 998.53 999.92 1000.59 1001.16 1001.85 1002.02 1002.57 1002.95 1003.37 1003.98 1004.91 1004.04 1005.29 1005.98 1007.03 1007.85 1008.54 1009.40 1009.72 1010.16 1010.71
995.49 996.24 996.94 997.51 997.83 998.00 997.33 996.44 996.67 996.26 995.50 994.46 993.68 993.35 993.62 993.71 993.92 994.46 994.63 995.34 996.12 996.82 997.84 998.61 999.54 1000.11 1000.65 1001.03 1001.45 1001.53 1002.00 1002.71 1003.33 1003.56 1003.97 1005.14 1006.01 1007.01 1007.69 1008.46 1009.10 1009.28 1008.89 1009.13
995.50 996.04 996.70 997.15 996.48 996.10 996.16 995.97 995.50 994.74 994.27 993.47 993.06 992.68 992.79 993.08 993.62 994.41 994.50 995.49 996.36 996.97 997.50 998.22 998.48 999.42 1000.21 1000.41 1000.82 1001.16 1001.58 1002.20 1002.86 1003.51 1004.10 1004.52 1005.28 1006.16 1006.52 1007.34 1007.75 1008.39 1008.76 1008.65
995.24 995.00 994.86 994.68 995.82 995.73 995.39 995.02 994.57 994.42 993.59 993.19 992.90 992.79 992.96 993.09 993.33 993.46 994.51 995.15 996.02 996.75 997.29 998.12 998.90 999.58 999.81 1000.04 1000.33 1000.67 1001.26 1001.81 1002.54 1002.99 1003.45 1003.88 1004.67 1005.34 1005.90 1006.36 1006.60 1006.74 1007.19 1007.03
994.85 995.03 994.89 995.32 995.36 994.90 994.60 994.64 994.47 994.31 993.86 993.34 993.45 993.77 993.83 994.12 994.65 995.12 994.72 995.42 996.36 996.86 997.18 997.67 998.40 998.86 999.09 999.87 1000.19 1000.45 1000.96 1001.45 1002.03 1002.44 1002.95 1003.40 1004.00 1004.64 1005.09 1005.32 1005.40 1005.40 1005.31 1005.48
Wind_Speed
11 13 14 17 17 15 17 20 11 9 15 14 7 8 12 12 12 13 15 15 16 16 14 14 13 13 12 12 12 13 12 11 10 10 10 10 10 9 9 9 9 10 10 10
5 9 14 13 19 17 21 15 15 11 14 8 7 5 9 15 15 16 17 17 17 16 15 15 15 14 13 12 13 12 12 12 12 11 10 9 10 10 10 10 10 10 10 9
5 4 7 15 24 16 13 14 16 13 19 6 12 13 15 16 18 19 19 18 18 18 17 15 15 14 15 13 12 12 12 12 13 12 11 11 11 11 11 11 11 10 10 10
2 3 16 5 5 21 22 20 21 16 10 10 10 11 11 14 20 18 18 18 16 15 14 14 14 14 13 13 13 12 12 12 13 13 13 12 12 12 11 10 10 9 9 9
5 6 7 8 6 9 15 21 21 21 17 9 6 4 9 14 17 20 21 19 18 17 16 15 16 15 15 14 13 13 13 13 14 14 14 13 12 12 11 10 10 8 9 9
3 6 11 6 2 5 8 9 8 18 14 9 7 7 10 14 19 18 19 14 18 19 16 17 16 16 16 15 15 15 15 14 14 14 14 13 13 12 10 10 10 8 8 8
11 8 5 5 5 6 9 4 11 4 7 14 8 10 6 7 14 17 17 17 18 18 17 17 17 17 16 15 16 14 14 15 14 13 13 13 13 11 11 10 9 8 8 7
8 11 16 7 4 6 6 6 9 10 12 6 10 12 12 9 12 14 17 18 20 16 15 16 18 16 16 16 14 15 15 15 14 14 11 12 14 12 11 10 10 9 8 7
11 7 5 6 8 9 9 6 9 8 10 11 13 15 16 14 13 17 19 16 19 19 18 16 18 16 17 15 17 17 16 15 15 15 13 14 14 13 10 10 9 8 8 8
4 10 7 4 8 8 9 10 6 11 13 12 12 14 15 12 12 14 16 18 18 18 19 18 18 16 14 18 19 19 18 16 15 15 14 13 10 10 10 10 9 8 8 9
9 13 11 7 4 7 13 12 9 12 14 14 15 18 18 12 13 14 15 17 17 18 17 19 19 18 18 19 20 18 17 15 15 13 15 13 11 10 10 9 10 10 9 9
9 1 4 3 6 15 15 14 12 17 24 18 15 16 16 16 11 13 15 16 16 16 17 17 19 20 19 20 20 20 18 15 14 13 13 12 11 8 8 2 7 6 7 7
11 8 11 15 13 17 17 10 15 17 15 21 22 18 17 13 11 11 14 16 17 20 20 19 19 20 19 19 19 19 17 17 13 13 13 13 12 11 11 4 6 7 9 8
20 19 23 24 15 7 13 16 18 19 16 15 18 19 19 12 10 15 17 19 17 17 17 19 19 20 20 20 19 18 16 14 14 13 13 13 12 12 11 13 13 11 7 10
17 19 21 19 18 16 16 16 19 19 17 16 15 16 18 13 13 17 15 17 17 17 16 18 19 19 20 21 19 20 16 14 14 13 13 13 12 12 11 12 11 11 10 6
23 25 25 26 23 23 21 21 17 19 17 16 16 15 15 19 15 13 14 16 18 20 20 19 19 20 21 21 20 16 15 19 14 14 13 14 12 13 13 12 12 12 12 12
22 24 24 23 21 20 18 16 16 16 16 16 16 17 15 17 14 15 16 20 17 15 18 22 23 21 22 23 23 15 13 15 19 15 15 14 14 14 12 12 12 12 11 11
26 26 24 21 19 18 16 15 13 15 16 16 15 15 17 16 15 13 16 16 16 15 18 17 16 19 20 22 21 16 15 15 16 15 14 15 15 15 14 13 13 13 11 10
28 28 25 25 22 18 16 16 16 15 16 15 15 16 16 19 14 10 13 15 17 16 17 17 14 19 19 20 19 14 14 16 16 14 13 13 14 15 15 14 13 13 12 11
30 27 26 25 22 20 18 16 16 17 17 15 16 16 17 17 13 13 16 19 17 10 12 16 20 19 18 20 19 14 16 16 15 14 13 13 13 13 12 13 15 15 14 13
29 25 25 23 20 18 17 17 14 17 17 15 16 17 18 14 13 14 14 11 14 13 17 19 18 15 14 17 18 14 14 13 13 11 12 14 13 14 14 14 14 15 15 13
21 20 22 19 17 16 16 14 16 16 17 16 16 19 18 14 14 15 13 9 7 14 12 14 14 17 16 25 17 17 17 15 14 12 13 14 13 13 14 14 16 15 15 14
15 17 17 17 16 15 12 15 16 13 15 18 21 19 16 13 11 11 12 11 8 13 9 10 15 21 22 18 15 16 18 16 16 17 14 16 16 14 14 15 12 12 12 11
12 12 12 12 11 12 15 12 12 18 19 17 13 14 13 10 8 8 5 13 14 16 15 14 19 25 27 15 15 14 14 13 12 10 9 9 10 11 9 12 12 12 13 13
10 9 8 8 5 7 12 15 13 9 9 5 4 7 9 7 6 7 6 10 15 18 14 16 27 29 18 15 14 12 12 12 11 10 10 11 12 13 12 12 12 11 11 13
7 3 5 9 10 9 7 5 3 2 2 4 5 5 5 4 1 6 8 8 11 11 10 11 13 15 14 11 10 10 10 10 10 11 11 11 11 11 13 14 14 14 14 14
5 6 7 6 3 2 3 4 4 2 3 4 7 5 7 8 7 6 10 9 9 8 8 10 11 12 11 10 10 10 9 8 9 11 12 11 11 12 13 13 13 11 13 12
Wind_Direction
236 242 221 229 233 200 206 228 227 275 232 245 234 201 197 189 171 180 170 174 179 183 177 171 170 173 179 164 162 161 159 156 160 153 143 136 131 127 125 121 117 123 118 111
261 236 222 230 233 219 222 228 246 246 256 263 223 194 196 179 180 185 181 185 187 183 175 172 174 176 172 167 160 161 157 155 152 144 135 131 132 132 128 122 123 122 125 123
236 349 224 235 235 222 217 206 227 222 246 197 211 213 201 191 188 191 188 192 187 187 180 173 177 175 172 165 156 161 157 148 150 145 137 139 141 137 133 131 129 123 118 114
276 197 230 259 243 225 223 218 214 236 241 206 233 207 219 203 190 193 194 195 183 183 181 172 168 171 157 156 158 159 157 155 152 150 147 147 142 137 135 131 125 124 119 113
248 231 302 272 204 188 200 237 227 229 234 211 213 142 242 215 203 199 188 199 185 180 177 160 163 159 154 161 160 163 163 161 160 155 149 148 145 143 134 132 131 128 117 116
177 236 242 230 342 309 221 249 299 225 227 178 161 229 245 199 201 210 211 190 174 174 172 161 162 160 158 163 167 174 166 164 160 156 152 150 145 141 137 136 133 133 126 120
218 248 255 268 295 179 180 52 354 338 190 178 203 220 263 181 218 205 192 172 168 165 172 166 160 163 167 168 179 167 158 156 156 154 150 147 142 143 141 139 137 142 142 139
203 222 235 9 172 228 14 24 42 1 6 299 261 260 247 233 205 197 183 161 165 166 171 161 162 166 166 177 160 154 155 155 153 150 151 149 150 147 145 147 149 154 156 160
213 206 101 44 78 81 37 22 15 355 345 325 313 281 266 233 195 189 185 182 172 164 162 169 168 171 169 163 156 154 154 157 156 154 152 157 155 152 154 163 165 167 173 173
258 208 217 39 126 62 32 16 354 356 336 338 322 319 281 249 218 189 183 177 174 165 165 172 172 172 165 157 157 157 155 159 159 155 156 163 161 163 163 172 175 175 180 180
246 273 269 169 115 1 348 349 342 341 338 335 328 320 325 272 213 199 181 178 175 173 171 174 165 166 159 162 161 160 156 160 165 162 168 164 172 173 178 183 183 178 183 176
247 188 280 289 335 327 327 331 339 340 334 329 330 317 304 286 230 194 187 178 177 176 166 173 167 164 165 168 168 162 162 167 174 167 171 171 169 163 44 147 164 99 139 176
248 268 270 276 288 298 300 319 321 323 318 317 321 323 306 275 223 197 184 185 186 180 171 169 168 165 167 170 169 169 167 168 171 172 172 173 179 177 171 134 146 165 164 157
247 263 273 265 271 279 296 304 307 302 305 308 316 320 316 274 216 193 194 194 183 181 173 169 169 166 167 167 168 172 171 164 169 176 176 178 182 182 178 178 183 187 183 189
243 243 257 277 279 273 282 293 297 295 303 307 316 319 315 293 229 213 202 187 180 179 178 173 176 168 170 169 170 173 170 174 175 177 180 182 183 186 187 187 190 186 173 194
241 248 254 257 267 274 277 277 276 283 293 300 306 307 311 309 260 215 194 182 173 185 179 179 183 168 169 170 171 176 176 171 173 173 177 185 187 192 192 191 192 192 192 198
236 239 243 249 251 257 260 265 268 272 284 289 293 305 307 304 264 215 196 193 195 186 187 176 180 170 171 175 174 172 172 172 174 176 179 186 189 197 197 195 198 198 200 200
235 238 238 236 246 250 248 251 262 269 271 283 295 299 298 291 249 215 198 191 198 197 196 196 190 177 177 176 176 172 169 171 181 187 184 189 192 193 195 198 201 199 204 183
232 237 235 236 238 244 251 258 263 271 276 282 287 286 285 284 258 214 193 189 197 205 201 190 164 174 177 178 177 175 182 181 183 192 196 192 192 197 196 194 196 200 201 190
232 225 229 233 236 240 248 251 260 269 271 277 281 286 279 270 224 193 189 198 196 200 172 180 166 180 181 175 181 180 181 186 188 190 188 193 202 212 218 204 194 193 200 200
219 218 221 224 230 234 242 252 256 260 267 270 278 274 274 257 205 189 190 204 197 188 172 165 179 177 173 168 175 176 178 181 179 186 187 195 196 207 205 208 211 205 203 202
207 207 214 214 221 235 239 249 249 256 266 276 275 265 257 228 198 198 202 203 158 155 174 174 180 175 172 169 181 185 183 184 184 191 180 197 188 189 205 199 207 212 206 199
193 196 202 209 216 230 245 244 246 253 270 268 259 245 219 210 204 193 197 199 155 161 148 173 181 166 160 180 186 189 194 192 199 202 185 184 190 193 204 210 212 203 207 210
172 183 199 211 218 234 244 260 269 257 243 246 244 218 201 197 199 204 146 154 157 165 189 181 167 164 168 186 196 195 195 200 204 204 199 195 199 206 204 213 211 211 206 215
159 171 187 207 250 273 260 261 255 246 231 201 159 175 188 202 191 184 146 156 161 177 186 170 168 171 184 195 195 197 195 201 204 201 200 196 195 201 202 205 206 215 221 215
169 199 255 237 226 232 237 239 196 206 139 117 82 90 109 101 68 151 165 163 166 178 181 171 182 184 193 194 194 199 208 204 197 198 202 199 199 201 209 214 218 214 215 216
115 196 168 156 181 119 64 75 98 61 30 81 98 91 109 120 115 131 117 129 154 171 158 163 174 184 182 187 194 194 198 206 200 200 204 204 200 208 214 220 227 218 214 213